Regional Weather Roundup
Issued by NWS

Home | Current Version | Previous Version | Text Only | Print | Product List | Glossary Off
Versions: 1 2 3 4 5 6 7 8 9 10 11 12 13 14 15 16 17 18 19 20 21 22 23 24 25 26 27 28 29 30 31 32 33 34 35 36 37 38 39 40 41 42 43 44 45 46 47 48 49 50

000
ASUS43 KMPX 110601
RWRMN
WEATHER ROUNDUP FOR MINNESOTA
NATIONAL WEATHER SERVICE TWIN CITIES/CHANHASSEN MN
1200 AM CST SUN DEC 11 2016


NOTE: "FAIR" INDICATES FEW OR NO CLOUDS BELOW 12,000 FEET WITH NO
SIGNIFICANT WEATHER AND/OR OBSTRUCTIONS TO VISIBILITY. N/A MEANS
CURRENT SKY AND/OR WEATHER CONDITIONS ARE NOT AVAILABLE.

MNZ060>063-068>070-110700-
   Twin Cities Metro

CITY           SKY/WX    TMP DP  RH WIND       PRES   REMARKS
TWIN CITIES    LGT SNOW  14  10  84 E9        30.14F FOG     WCI   2
6HR MIN TEMP:  12; 6HR MAX TEMP:  14; 6HR PCP:  0.12;

ST PAUL        LGT SNOW  14  11  87 E6        30.17F VSB 1   WCI   5
CRYSTAL        LGT SNOW  13   8  81 E8        30.14F WCI   2
BLAINE         LGT SNOW  16  12  86 E9        30.14F WCI   4
LAKEVILLE      LGT SNOW  12  10  92 E8        30.11F WCI   1
EDEN PRAIRIE   LGT SNOW  14  10  84 E7        30.11F VSB 3/4 WCI   4
6HR MIN TEMP:  12; 6HR MAX TEMP:  15; 6HR PCP:  0.05;

SOUTH ST PAUL  LGT SNOW  15  11  85 NE5       30.15F WCI   7
LAKE ELMO      LGT SNOW  14  12  92 E6        30.16F WCI   5
$$
MNZ001>005-007-008-013>017-022>024-027-028-110700-
   Northwest Minnesota

CITY           SKY/WX    TMP DP  RH WIND       PRES   REMARKS
BEMIDJI        CLOUDY    -3  -7  84 E6        30.12F WCI -16
HALLOCK        CLOUDY    -8 -11  84 E10       30.21F WCI -26
ROSEAU         CLOUDY   -15 -18  84 CALM      30.22S
WARROAD        CLOUDY    -9 -13  84 SE6       30.21F FOG     WCI -23
THIEF RVR FALL CLOUDY    -8 -12  83 E9        30.17F WCI -25
CROOKSTON      CLOUDY    -4  -8  84 E9        30.18F WCI -20
FOSSTON        CLOUDY    -8 -11  84 E6        30.14F WCI -21
DETROIT LAKES  CLOUDY     7   1  78 E8        30.09F WCI  -6
MOORHEAD       MIX PCPN   7   0  72 E7        30.11F WCI  -5
PARK RAPIDS    CLOUDY     4  -3  73 E12       30.10F WCI -12
$$
MNZ006-009>011-018-025>026-110700-
   North Central Minnesota

CITY           SKY/WX    TMP DP  RH WIND       PRES   REMARKS
BAUDETTE       CLOUDY    -9 -13  83 E5        30.20F WCI -20
INTL FALLS     CLOUDY   -10 -15  78 CALM      30.23F HAZE
6HR MIN TEMP: -16; 6HR MAX TEMP: -10;

WASKISH        CLOUDY    -8  -9  92 E6        30.18F WCI -21
BIG FORK       CLOUDY   -13 -18  77 CALM      30.18F
LONGVILLE      CLOUDY     0  -4  85 CALM      30.15F
GRAND RAPIDS   CLOUDY    -3  -7  82 CALM      30.18F
CRANE LAKE     CLEAR    -15 -18  84 CALM      30.26F
ORR            CLOUDY   -17 -22  76 CALM      30.17F
COOK           CLOUDY   -15 -18  84 CALM      30.19F
$$
MNZ012-019>021-037-110700-
   Northeast Minnesota

CITY           SKY/WX    TMP DP  RH WIND       PRES   REMARKS
DULUTH         CLOUDY     5   0  79 CALM      30.17F
6HR MIN TEMP:   0; 6HR MAX TEMP:   5;

ELY            CLOUDY   -15 -18  84 CALM      30.20F
HIBBING        CLOUDY   -13 -17  82 CALM      30.18F
EVELETH        CLOUDY    -3  -8  79 NE5       30.19F WCI -14
DULUTH HARBOR  CLOUDY    10   3  72 CALM      30.26F
TWO HARBORS    CLOUDY     7   1  78 CALM      30.19F
SILVER BAY     CLOUDY     3   0  85 CALM      30.20F
GRAND MARAIS     N/A      7  -2  66 NW6       30.27F WCI  -3
G MARAIS ARPRT CLOUDY    -4  -9  77 N3        30.16F
$$
MNZ029>031-032-039>041-046>048-054>057-064-110700-
   West Central Minnesota

CITY           SKY/WX    TMP DP  RH WIND       PRES   REMARKS
FERGUS FALLS   CLOUDY     9   1  72 E8        30.11F WCI  -4
WHEATON        FLURRIES  12   9  85 E12       30.07F WCI  -2
MORRIS         LGT SNOW  10   7  85 E18       30.03F WCI  -8
ALEXANDRIA     LGT SNOW   9   5  84 E14       30.05F FOG     WCI  -7
ELBOW LAKE     LGT SNOW   9   5  84 SE14      30.05F WCI  -8
WADENA         FLURRIES   7   1  78 E7        30.08F WCI  -5
GLENWOOD       CLOUDY     9   7  92 E16G22    30.06F WCI  -9
APPLETON       LGT SNOW  12   9  85 E15       30.03F WCI  -4
BENSON         FLURRIES  12   9  85 SE13      30.04F WCI  -3
ORTONVILLE     LGT SNOW  10   7  85 E12       30.02F WCI  -4
MADISON        LGT SNOW  14  12  92 E14       30.02F VSB 1   WCI  -1
WILLMAR        LGT SNOW  12  10  92 E13       30.06F WCI  -3
$$
MNZ033>034-036-042>043-049>051-058-059-110700-
   Central Minnesota

CITY           SKY/WX    TMP DP  RH WIND       PRES   REMARKS
ST CLOUD       LGT SNOW  11   8  88 E8        30.13S FOG     WCI  -1
6HR MIN TEMP:   9; 6HR MAX TEMP:  11; 6HR PCP:  0.03;

PAYNESVILLE    LGT SNOW  11  10  93 E9        30.09F WCI  -2
AITKIN         MIX PCPN   9   0  66 E6        30.14F WCI  -1
PINE RIVER     LGT SNOW   3   0  85 E6        30.16F WCI  -8
BRAINERD       LGT SNOW   8   4  83 NE5       30.13F FOG     WCI   0
LONG PRAIRIE   FLURRIES   9   5  85 NE10      30.10F WCI  -6
LITTLE FALLS   FLURRIES  10   5  79 E6        30.13F WCI   1
LITCHFIELD     LGT SNOW  12  10  92 E9        30.10F WCI   0
BUFFALO        LGT SNOW  13   9  85 NE10      30.13F WCI  -1
MAPLE LAKE     LGT SNOW  13  10  89 E9        30.13F WCI   1
HUTCHINSON     LGT SNOW  13  10  87 E10       30.10F WCI   0
$$
MNZ037-044-045-052-053-110700-
   East Central Minnesota

CITY           SKY/WX    TMP DP  RH WIND       PRES   REMARKS
PRINCETON      LGT SNOW  12   9  85 NE5       30.14F WCI   4
MORA           FLURRIES  12   9  85 E6        30.18F WCI   3
CAMBRIDGE      LGT SNOW  14   7  73 E3        30.14F
RUSH CITY      CLOUDY    12   9  85 E6        30.18F WCI   3
MOOSE LAKE     FLURRIES   9   3  78 CALM      30.17F
HINCKLEY       FLURRIES  12   9  85 E6        30.18F WCI   3
CLOQUET        CLOUDY     5   0  78 NE3       30.17F
MCGREGOR       CLOUDY     9   1  72 E8        30.16F WCI  -4
$$
MNZ071>073-080-081-089-090-097-098-110700-
   Southwest Minnesota

CITY           SKY/WX    TMP DP  RH WIND       PRES   REMARKS
MONTEVIDEO     LGT SNOW  12  10  92 SE17      30.04F VSB 1   WCI  -5
GRANITE FALLS  LGT SNOW  15  12  88 E13G20    30.04F WCI   0
CANBY          LGT SNOW  13  10  91 CALM      30.00F VSB 1
MARSHALL       LGT SNOW  13  10  88 E12       29.99F FOG     WCI  -1
REDWOOD FALLS  SNOW      13   9  84 E12       30.04F VSB 1/2 WCI  -1
OLIVIA         LGT SNOW  16  12  86 E12G17    30.04F WCI   3
PIPESTONE      CLOUDY    16  12  86 SE14G20   29.89F WCI   1
WINDOM         LGT SNOW  18  16  93 MISG      29.97F
WORTHINGTON    MIX PCPN  18  16  92 E15       29.93F WCI   4
JACKSON        LGT SNOW  19  18  93 E16       29.97F WCI   5
TRACY          LGT SNOW  15  13  92 E12       29.97F WCI   2
SLAYTON        LGT SNOW  15  13  92 E13       29.95F WCI   0
$$
MNZ065>067-074>077-082>085-091>093-110700-
   South Central Minnesota

CITY           SKY/WX    TMP DP  RH WIND       PRES   REMARKS
MANKATO        LGT SNOW  16  13  88 E12       30.07F FOG     WCI   3
NEW ULM        LGT SNOW  14  10  85 E10       30.05F VSB 3/4 WCI   1
ST JAMES       LGT SNOW  18  16  93 E12       30.03F VSB 1   WCI   5
FAIRMONT       LGT SNOW  19  17  92 E15       30.01F FOG     WCI   5
GLENCOE        LGT SNOW  14  12  93 E9        30.09F WCI   2
FARIBAULT      LGT SNOW  14  12  92 E7        30.09F WCI   4
OWATONNA       LGT SNOW  16  12  86 E13       30.07F WCI   2
WASECA         LGT SNOW  18  14  86 E13       30.07F WCI   4
ALBERT LEA     LGT SNOW  21  19  93 SE12G17   30.05F WCI   9
$$
MNZ078>079-086>088-094>096-110700-
   Southeast Minnesota

CITY           SKY/WX    TMP DP  RH WIND       PRES   REMARKS
ROCHESTER      LGT SNOW  14  12  92 E13       30.09F VSB 1   WCI   0
6HR MIN TEMP:  11; 6HR MAX TEMP:  14; 6HR PCP:  0.12;

RED WING       LGT SNOW  16  10  79 E7        30.15F WCI   6
STANTON        LGT SNOW  16  13  86 E7        30.11F WCI   6
DODGE CENTER   LGT SNOW  14  12  92 E12       30.07F WCI   0
WINONA         LGT SNOW  18  14  86 SE8       30.19F WCI   7
AUSTIN         LGT SNOW  18  16  93 SE13      30.06F WCI   4
PRESTON        LGT SNOW  16  13  90 SE8       30.10F WCI   5
$$
ABBREVIATIONS USED IN REMARKS
   TC - TEMPERATURES IN CELSIUS
  WCI - WIND CHILL INDEX
   HX - HEAT INDEX
  VSB - VISIBILITY
$$



USA.gov is the U.S. government's official web portal to all federal, state and local government web resources and services.